Theta_e
295 294 293 293 293 293 293 293 293 294 295 296 296 295 295 296 297 297 297 297 299 301 302 302 302 302 303 303 303 304 305 305 306 306 305 305 306 307 306 306 308 309 309 309 309 313 310 307 306 306 308 306 306 306
295 294 294 293 293 293 293 293 293 293 294 294 296 295 295 295 297 297 296 296 297 300 301 300 301 301 302 302 302 304 303 303 304 305 304 304 306 306 306 307 306 308 308 310 309 309 308 307 307 307 306 307 306 306
298 295 294 294 293 293 293 293 293 294 294 295 295 294 294 296 296 296 295 296 298 299 299 300 300 298 300 302 302 303 303 303 305 304 306 306 306 306 307 307 306 306 307 308 307 307 307 306 306 305 305 306 304 303
298 298 295 294 293 293 293 293 293 293 294 294 294 294 295 296 296 295 295 296 297 298 300 299 297 298 299 300 299 299 302 303 304 305 305 307 306 305 307 306 307 309 308 307 307 309 307 306 306 306 305 303 302 300
298 298 295 295 293 293 293 293 293 293 293 294 293 294 295 296 295 295 294 295 297 298 300 298 299 299 298 297 297 298 302 304 305 305 306 306 305 307 307 307 308 307 311 310 310 307 308 308 304 301 303 303 301 300
298 299 296 295 294 293 293 293 293 293 293 293 293 295 296 296 295 295 294 293 296 298 300 301 300 300 299 298 299 299 302 303 305 305 305 305 305 307 308 307 305 306 307 308 309 306 306 301 299 298 301 301 300 299
298 299 296 295 294 293 294 293 293 293 293 294 295 296 296 292 293 297 298 295 296 296 298 298 300 300 299 300 302 301 298 300 303 304 305 305 306 307 307 308 307 309 307 306 304 302 302 300 303 298 298 297 296 297
299 298 296 294 294 294 294 294 293 293 294 293 293 295 292 293 295 297 297 295 296 297 299 299 300 302 301 302 303 303 302 303 302 301 302 305 306 306 308 309 306 305 302 303 302 300 301 299 297 297 296 296 296 296
298 295 294 294 294 294 294 293 293 294 292 293 294 294 294 295 296 297 296 295 297 298 299 299 301 303 301 302 302 301 302 305 300 305 307 307 308 307 308 307 305 303 303 303 300 298 297 298 298 297 296 296 296 296
295 295 295 294 294 294 293 293 293 293 294 293 294 295 296 296 295 295 295 297 298 299 298 300 300 303 303 301 303 303 303 308 306 306 304 305 306 305 305 305 304 303 302 300 299 299 298 299 298 297 296 295 295 294
295 295 294 294 294 294 294 294 293 294 293 295 295 297 295 295 296 298 296 298 298 297 298 300 301 302 301 303 303 303 305 305 306 306 306 307 307 306 304 303 300 300 300 299 299 298 299 298 298 296 294 293 292 291
295 295 295 294 294 294 293 293 293 294 295 296 296 295 295 296 298 298 299 299 298 298 299 300 302 302 302 301 304 302 305 303 305 304 307 307 306 301 300 299 298 299 298 297 297 297 296 295 295 294 293 292 290 289
295 295 294 294 293 293 293 294 294 295 295 297 298 298 298 298 298 298 300 300 301 301 300 300 302 300 301 301 304 304 304 305 302 305 305 305 300 299 299 298 297 297 297 296 295 294 294 293 292 292 290 289 286 285
295 295 295 294 295 294 293 294 296 297 298 300 300 298 299 299 299 300 301 302 300 302 301 303 303 304 302 302 302 304 301 302 304 304 303 302 300 297 297 297 297 296 295 295 294 292 291 290 290 288 288 285 284 284
295 295 295 294 293 293 295 296 296 296 298 298 298 299 298 298 298 299 299 299 298 301 304 303 302 303 302 301 300 301 301 303 303 302 303 299 298 296 296 296 295 294 292 292 291 290 290 289 289 287 285 284 284 283
295 295 295 295 296 296 297 296 296 297 296 298 298 299 299 299 300 300 300 300 300 303 303 303 303 303 303 301 301 302 301 301 303 300 297 296 296 297 297 295 294 292 291 290 290 290 289 288 288 287 284 284 283 282
296 296 296 297 297 298 298 297 297 297 297 297 299 298 298 298 301 301 298 300 301 301 305 301 302 301 300 301 300 300 302 300 296 296 296 296 297 296 294 293 291 291 290 289 288 288 287 285 285 285 285 283 283 282
297 297 297 298 298 298 297 296 297 297 296 297 299 298 296 295 298 298 298 298 300 301 301 301 300 301 302 301 302 300 297 294 295 295 295 295 294 293 292 292 290 289 288 288 287 285 285 285 286 286 285 283 283 282
296 297 298 298 298 295 296 295 295 297 297 297 297 296 296 297 296 295 297 298 299 300 301 300 301 300 300 299 298 298 296 296 296 294 293 292 292 291 290 289 288 288 287 286 285 287 286 286 287 286 285 283 284 283
294 294 294 294 294 295 295 295 294 297 298 297 296 297 297 296 295 297 298 299 299 299 299 298 298 297 297 296 294 296 295 294 294 294 293 292 290 289 289 289 288 286 286 285 285 285 285 285 284 284 284 284 284 283
292 292 293 293 293 294 294 295 295 295 296 297 296 296 297 296 296 298 299 297 299 298 296 295 295 294 293 293 292 292 292 292 293 293 294 292 290 290 289 287 286 286 287 287 287 286 285 287 285 284 283 283 283 282
290 291 292 292 294 293 293 292 294 294 295 295 295 295 297 298 297 296 294 297 296 295 295 294 294 293 293 293 292 292 291 290 289 290 290 289 291 290 289 288 287 287 287 288 287 287 286 285 284 283 283 282 281 281
290 290 290 290 292 293 293 291 295 294 295 295 294 295 295 296 294 293 295 294 294 293 294 294 292 292 291 290 290 290 290 290 291 290 290 290 290 289 289 288 288 288 287 286 286 285 285 283 281 282 282 281 281 280
288 287 289 291 291 292 289 293 294 294 294 294 294 294 294 296 294 295 295 294 293 293 293 292 292 291 290 290 291 290 290 289 289 289 289 289 290 288 288 288 287 287 287 286 285 284 284 283 281 281 281 281 281 280
291 288 289 290 289 291 292 292 291 293 294 292 293 293 295 294 297 295 295 294 293 293 293 292 293 292 292 291 290 289 287 289 289 290 288 289 289 289 288 288 287 287 286 286 285 284 283 282 281 281 280 280 280 280
289 288 290 290 291 291 291 293 292 292 291 292 292 291 292 295 295 295 294 293 292 292 293 294 292 291 291 290 290 289 288 287 288 289 287 286 287 289 290 289 288 287 286 286 285 284 283 282 281 280 280 279 279 279
288 289 289 287 288 288 290 289 288 290 291 291 292 291 293 294 295 292 289 288 290 288 289 290 291 291 290 287 286 285 285 285 286 286 284 283 283 283 285 288 289 287 285 285 284 284 283 282 281 280 280 279 278 278
289 288 288 288 289 287 288 288 289 290 290 288 288 291 292 292 292 288 288 287 287 287 287 287 287 287 286 285 285 284 283 283 283 282 282 282 281 281 282 282 283 284 282 283 283 282 282 282 281 280 280 279 278 277
288 286 285 286 286 288 288 289 289 289 288 290 290 290 289 286 284 285 285 285 286 286 287 286 285 285 284 283 283 283 283 283 284 285 285 286 285 283 281 281 282 281 282 282 282 281 281 281 280 280 279 278 277 276
287 284 287 285 285 288 288 287 288 288 288 288 288 287 285 284 281 279 281 284 286 286 286 286 286 286 286 286 286 284 282 283 283 284 286 285 284 281 280 279 280 279 280 281 280 279 279 279 278 276 275 275 274 274
284 286 287 287 288 288 288 287 287 287 287 288 288 289 288 285 281 279 279 279 280 282 284 285 285 285 286 285 285 285 285 283 282 282 282 281 280 279 278 277 277 277 277 277 277 277 276 277 276 275 275 274 272 272
288 287 287 287 288 287 286 287 287 287 287 287 288 285 284 285 286 284 277 277 279 281 279 281 283 283 279 280 281 281 282 281 281 281 281 279 278 277 277 277 276 276 276 275 275 275 275 275 274 273 272 271 271 269
287 287 287 287 288 287 285 285 285 286 285 287 287 285 286 286 287 282 274 275 278 280 279 277 276 277 278 278 278 278 279 279 280 280 280 279 279 278 276 276 275 275 274 274 274 273 273 272 272 271 269 268 267 266
Wind_Speed
43 43 43 41 39 37 35 34 31 28 26 25 25 25 26 27 31 23 12 26 4 4 3 7 8 9 10 13 12 10 9 8 8 11 9 7 8 9 10 8 9 11 9 7 9 7 12 11 12 7 2 4 5 7
45 46 44 44 41 38 37 34 32 29 27 25 27 27 25 26 32 22 6 21 17 1 3 3 4 3 4 12 11 12 9 10 9 8 8 6 6 6 11 11 13 9 9 7 8 8 3 16 8 13 4 6 7 8
37 49 48 45 43 40 37 33 31 29 29 32 31 27 25 29 32 24 11 23 14 3 3 3 5 5 3 4 3 8 6 6 6 7 5 7 7 8 9 11 11 9 9 6 5 8 13 11 14 8 10 11 6 6
28 45 50 47 45 42 39 35 32 31 31 32 30 28 30 31 31 25 19 24 18 5 3 4 5 6 8 5 3 5 4 1 1 5 6 5 6 6 7 9 10 7 9 9 14 10 11 11 13 13 12 10 7 6
24 31 52 49 48 44 40 37 34 31 30 31 29 30 33 34 30 18 24 16 17 5 6 5 4 9 17 11 12 11 9 8 4 5 5 8 6 4 2 3 9 7 8 9 9 9 10 7 3 3 9 11 11 9
28 31 52 51 50 46 41 38 34 32 31 29 31 33 37 31 33 20 3 11 10 7 3 4 3 7 16 19 14 11 5 5 6 4 5 5 1 5 4 5 10 16 13 14 16 4 4 3 2 2 4 6 8 9
30 31 54 54 53 47 42 39 35 32 31 30 30 34 34 37 24 2 3 17 18 9 2 2 3 4 16 17 10 6 7 3 4 2 3 3 5 5 3 12 5 6 9 10 7 6 4 6 3 5 4 4 7 7
35 44 56 57 55 47 43 39 35 33 29 23 26 36 41 27 14 7 8 28 23 7 1 2 3 3 11 6 8 6 4 5 5 3 3 5 4 2 5 7 13 10 5 8 9 7 2 4 5 5 5 6 7 7
42 60 60 58 53 47 45 41 38 35 25 38 42 33 21 5 3 4 17 25 7 2 4 3 4 4 3 3 3 1 2 4 1 4 3 5 4 7 9 12 10 11 9 6 9 7 6 7 6 7 7 7 8 7
57 58 58 55 50 48 46 42 40 35 36 40 22 7 3 5 23 26 7 2 4 3 1 3 2 3 4 1 3 3 2 2 4 3 4 5 6 12 8 8 6 10 9 10 11 7 8 8 8 8 8 6 5 6
55 55 55 51 49 46 44 43 41 37 33 7 3 3 15 26 5 1 4 5 4 3 5 4 6 4 2 4 2 2 3 4 4 4 5 5 4 9 10 9 5 7 10 10 3 2 6 3 6 7 6 6 6 7
51 52 49 47 46 45 44 44 43 23 8 7 16 18 7 2 2 2 4 4 4 5 6 9 6 4 3 2 3 3 2 2 3 6 3 3 3 3 4 6 6 8 11 9 5 5 5 3 3 5 5 6 7 8
48 47 48 48 47 46 46 41 25 28 34 13 4 4 4 2 4 4 8 4 5 6 7 8 5 4 2 1 1 2 5 3 4 4 3 1 3 4 6 7 8 9 9 8 7 7 6 6 5 5 6 7 10 10
41 41 42 42 42 43 36 25 35 10 3 2 2 4 3 4 4 4 3 1 2 3 9 9 5 2 2 4 2 3 1 3 3 3 4 2 5 6 5 6 9 9 6 6 6 6 8 8 7 6 6 9 11 11
39 40 42 41 41 33 17 24 4 6 4 2 1 1 4 2 1 2 0 1 1 7 9 6 4 2 3 2 2 3 3 3 4 3 2 3 7 7 7 6 6 5 4 5 6 7 7 7 7 7 6 8 8 11
34 31 27 27 21 17 15 3 2 5 2 2 1 2 2 3 2 2 2 2 5 8 5 3 3 3 2 3 4 5 3 4 2 2 2 5 5 3 5 6 5 5 6 7 9 7 8 7 7 7 8 7 8 10
13 9 18 12 21 8 4 4 1 2 2 2 0 1 2 2 2 2 1 3 6 5 2 2 3 2 3 3 3 2 1 2 3 2 2 3 4 4 6 6 6 8 8 8 7 6 7 6 7 8 7 7 7 8
6 13 16 10 14 7 2 0 1 1 2 1 2 1 1 1 2 1 2 3 4 3 2 2 3 3 2 3 3 3 2 2 2 3 3 3 5 4 6 8 8 8 8 7 6 6 6 6 6 6 7 9 9 10
13 17 18 16 15 3 2 3 2 2 1 1 1 1 1 0 2 0 2 3 1 2 4 2 2 2 2 1 1 2 4 4 4 3 3 3 5 6 8 9 9 8 8 7 6 5 5 5 4 7 8 10 9 11
7 7 8 10 16 5 2 1 1 0 1 1 1 1 1 2 2 2 4 3 2 2 3 2 1 1 0 1 1 1 4 5 5 4 3 3 5 7 7 7 6 8 8 7 6 5 5 5 5 6 8 9 9 11
7 5 7 9 3 3 2 0 1 0 1 1 1 2 2 1 2 3 3 3 3 2 2 2 3 3 3 4 5 7 5 4 4 3 4 4 5 6 7 7 8 6 5 6 5 5 4 4 5 6 8 8 7 9
3 4 3 3 2 1 2 2 1 1 1 2 1 2 2 2 2 2 1 2 2 1 1 4 5 5 5 5 5 7 8 7 5 6 8 10 4 4 5 7 7 5 5 6 6 6 6 5 6 7 7 8 9 10
4 2 3 3 2 1 2 2 1 1 1 1 1 2 1 1 1 1 2 1 2 1 5 5 7 8 8 9 10 9 7 6 4 5 6 5 5 5 6 6 5 5 5 5 6 6 6 7 8 8 8 9 10 11
4 4 3 3 2 2 1 1 1 1 1 1 1 2 1 1 1 1 2 2 3 4 5 8 7 6 6 6 5 4 5 5 7 6 5 5 4 4 4 5 4 4 4 4 7 7 8 8 9 9 10 11 11 13
3 5 3 3 2 1 1 1 0 1 2 1 2 2 2 1 2 2 3 3 5 4 5 5 5 4 5 4 4 4 3 4 4 3 2 2 2 4 4 4 4 4 4 6 7 8 8 9 9 10 11 11 12 13
5 4 3 3 2 1 0 1 2 2 2 2 2 1 1 2 3 3 3 5 4 3 4 5 5 5 4 3 4 3 3 2 4 3 2 1 1 3 3 5 5 7 8 7 8 9 10 10 10 11 11 11 12 13
3 3 2 2 2 0 1 1 1 0 1 2 3 3 3 3 4 2 2 1 2 3 4 5 5 4 5 6 6 4 3 3 2 3 4 2 0 1 2 3 4 1 6 8 9 10 12 13 12 13 12 12 13 13
2 3 2 3 1 2 1 1 0 1 1 1 2 3 2 2 1 2 1 3 6 6 6 6 6 7 9 8 7 6 4 5 6 5 4 2 1 0 1 2 3 3 3 5 6 9 11 13 14 14 14 13 13 12
2 2 1 2 0 1 1 1 0 1 1 2 2 2 1 1 1 1 3 2 4 6 7 8 7 7 7 6 5 3 5 7 6 4 4 3 2 2 1 2 2 1 2 2 5 7 11 12 13 14 14 13 13 12
1 2 1 2 1 1 1 1 1 1 1 1 1 2 2 2 1 1 2 3 6 6 5 6 7 7 6 7 6 4 5 6 5 4 3 3 1 2 3 2 2 3 3 5 9 12 14 16 18 17 15 14 14 14
2 2 1 1 1 1 1 1 1 1 1 1 2 2 1 1 2 4 4 4 4 4 5 6 5 6 8 7 7 5 4 7 8 6 5 3 2 3 4 3 3 4 5 7 9 10 13 13 14 15 15 15 15 15
1 1 2 2 1 2 0 1 1 2 1 3 3 2 2 2 3 4 5 7 7 7 6 5 6 5 5 6 7 7 7 3 5 6 5 5 6 6 6 6 6 6 8 9 9 11 12 14 15 15 16 17 17 17
2 2 2 2 2 2 1 2 2 2 3 3 3 2 3 2 4 1 4 9 5 7 7 6 5 4 4 3 3 3 5 7 7 6 7 9 9 9 8 8 9 10 11 11 12 13 14 17 17 18 19 19 19 18
Wind_Direction
221 219 215 211 208 208 206 206 208 209 206 204 201 196 193 191 188 166 177 190 167 205 130 209 186 192 186 200 200 184 183 202 195 216 219 216 237 201 240 235 189 181 186 199 218 231 252 167 153 214 241 151 185 199
213 211 209 205 201 200 201 202 202 203 201 196 192 191 189 186 176 165 153 194 200 12 77 105 105 88 244 199 207 177 203 186 204 206 217 226 212 224 221 230 209 224 217 210 216 216 125 179 204 212 221 208 197 200
217 206 200 199 194 193 194 197 196 196 192 184 188 185 183 183 174 173 162 171 161 124 134 156 180 183 165 107 69 206 205 197 195 221 204 218 218 208 216 230 228 223 223 235 231 230 239 228 238 229 226 232 207 198
211 203 193 189 186 184 185 187 189 189 188 185 183 178 180 178 170 176 162 179 172 123 130 165 170 180 163 160 312 319 316 217 292 215 214 209 218 203 231 248 234 235 180 232 249 266 263 258 243 247 234 227 204 187
198 191 182 180 178 178 178 178 179 182 180 179 180 179 179 177 170 163 174 179 168 149 172 160 168 192 185 186 247 239 236 237 218 213 217 221 223 205 179 274 240 197 220 224 246 248 245 277 169 234 227 222 218 196
180 172 174 169 168 169 170 170 172 172 173 176 178 176 175 171 165 149 120 198 160 114 126 157 113 178 182 183 199 226 209 254 237 219 231 220 219 225 214 251 245 233 235 236 256 296 238 143 176 203 216 208 207 209
159 164 162 158 158 161 162 162 162 162 163 167 164 170 161 153 147 147 133 161 165 127 140 157 180 178 196 198 190 179 151 247 206 194 221 219 218 206 253 247 228 232 235 233 226 167 198 205 220 185 193 186 186 200
140 145 147 146 151 155 152 152 155 157 153 172 175 145 149 146 132 112 57 151 144 125 154 205 164 184 183 183 208 185 182 201 176 179 181 214 174 197 246 224 239 240 215 204 203 211 232 125 167 172 177 175 184 189
127 130 135 140 144 143 143 146 143 143 145 129 131 127 114 117 79 59 133 140 125 97 173 202 204 164 163 154 159 174 155 194 105 193 176 184 172 214 226 227 214 200 199 196 175 182 185 201 192 188 195 200 210 196
118 125 131 135 135 135 137 140 138 134 128 121 113 85 95 94 117 110 67 102 208 179 209 220 189 154 173 139 171 158 222 154 179 182 142 223 239 238 231 227 225 195 184 157 163 188 198 209 207 204 210 210 214 198
116 122 128 129 131 133 134 136 136 132 126 117 74 69 117 129 131 131 144 186 166 204 189 206 197 164 167 204 162 241 181 190 207 147 206 207 243 222 215 202 169 166 166 178 192 143 171 208 205 196 191 183 182 180
114 120 123 126 128 130 134 136 137 134 128 122 114 111 112 134 187 176 162 149 192 214 172 174 167 175 147 136 204 200 190 190 179 146 226 237 157 134 150 151 149 155 162 157 152 139 133 130 163 171 171 178 175 164
116 120 125 131 135 137 137 135 139 130 120 136 113 105 175 141 206 218 176 184 194 165 170 161 144 153 115 158 179 195 196 172 138 196 233 270 113 123 123 129 132 140 149 140 127 127 126 123 114 138 148 138 145 147
113 117 123 125 127 130 134 144 136 129 350 52 101 128 215 178 229 210 246 210 98 177 154 152 120 128 139 170 159 190 106 181 197 231 226 123 142 132 132 136 138 137 126 131 125 118 119 117 105 107 129 151 151 153
113 120 126 132 137 141 137 153 146 349 3 51 347 154 212 249 229 266 242 275 163 158 152 123 91 170 137 132 207 131 162 222 226 225 110 142 142 142 139 134 125 126 123 123 133 132 134 134 128 114 127 143 147 149
117 119 126 137 137 132 147 141 167 342 41 3 323 245 169 220 174 187 216 196 170 166 157 128 151 159 147 146 168 203 202 224 147 107 132 147 160 141 134 125 113 115 140 135 133 145 142 137 135 132 135 144 151 157
122 138 157 161 170 166 64 78 17 33 20 293 311 5 331 319 357 104 191 191 167 173 146 151 150 149 125 189 207 202 249 60 131 104 127 158 160 146 127 121 129 134 127 131 142 141 127 123 132 143 151 154 153 156
135 176 178 176 183 184 298 258 268 273 273 341 277 44 283 302 291 184 213 185 172 161 167 124 134 175 188 189 170 144 119 121 112 99 96 101 112 113 136 139 135 132 128 132 131 125 129 139 158 169 158 157 149 149
177 190 202 207 200 204 203 190 248 214 213 246 265 277 270 14 41 339 168 126 124 79 120 98 101 128 150 118 130 133 149 161 154 127 94 84 115 127 124 123 125 127 131 138 141 144 147 167 181 169 166 169 168 164
169 190 195 201 186 212 189 110 307 307 243 59 10 32 38 40 341 7 70 57 60 65 54 53 94 109 349 103 98 134 141 141 147 148 137 123 126 135 140 141 134 135 134 127 124 136 146 153 161 166 170 174 171 172
184 180 157 178 172 78 76 169 134 56 145 107 27 356 74 41 42 36 61 1 55 57 122 116 128 106 78 89 96 113 109 131 156 177 156 147 139 138 131 126 138 150 154 158 166 169 195 191 170 168 165 168 168 165
160 147 142 86 96 93 87 35 12 90 241 112 95 10 61 74 53 49 318 65 78 63 99 144 133 125 113 98 94 105 116 109 101 112 105 126 144 151 159 161 163 166 176 178 185 188 191 180 169 168 167 158 157 157
102 66 59 41 104 84 114 311 191 27 179 130 162 130 114 133 105 210 96 94 106 93 130 118 107 113 115 113 106 96 106 121 117 114 129 127 133 139 150 163 176 180 179 188 188 187 184 175 171 168 164 161 161 157
59 51 43 51 12 113 313 99 106 120 129 150 151 136 148 109 146 98 134 144 132 147 150 138 134 122 114 120 112 102 91 109 112 112 125 143 157 163 173 172 176 188 201 184 184 183 179 178 172 172 173 172 171 168
90 16 356 45 31 82 105 128 102 143 142 143 149 169 154 270 176 184 188 161 165 161 155 160 154 150 141 126 125 112 91 153 159 152 119 205 174 155 173 188 197 204 188 177 184 185 182 177 180 180 179 179 173 168
77 17 23 10 6 341 139 201 187 150 131 153 184 123 260 185 201 215 187 168 155 153 156 161 155 140 138 151 149 151 131 120 158 165 141 121 176 251 221 206 207 210 205 203 189 188 184 186 185 180 179 176 172 167
71 30 32 42 306 49 111 66 72 81 166 171 170 186 198 207 219 154 142 132 138 131 136 141 155 158 152 144 125 113 116 139 149 124 133 125 170 255 271 271 240 126 185 197 197 194 189 185 183 181 175 170 173 171
67 27 30 358 46 15 126 106 107 152 180 138 189 207 219 235 170 121 96 109 124 122 113 107 106 127 131 135 133 133 123 136 132 121 101 87 37 293 301 229 233 217 189 198 208 196 185 181 179 175 171 165 162 167
93 14 208 61 275 123 53 28 204 105 350 250 249 237 224 70 68 131 105 106 152 156 149 135 125 127 124 129 137 153 169 170 187 201 224 225 213 196 178 140 141 156 170 194 202 188 182 170 167 164 160 157 154 153
13 340 131 145 137 157 109 333 322 352 321 326 90 147 154 151 164 278 253 206 188 178 159 151 159 173 175 182 177 179 194 200 206 218 216 218 196 170 180 191 193 199 183 152 137 141 161 157 152 144 136 136 139 138
336 271 208 240 180 124 67 11 283 294 293 300 11 300 80 138 219 227 211 209 199 187 189 192 193 206 209 203 206 201 206 212 215 224 229 225 224 165 160 160 159 158 152 150 148 147 143 140 141 139 139 138 139 139
301 338 303 264 218 164 43 243 246 251 218 233 211 158 166 212 248 180 201 188 189 198 203 205 215 200 212 220 228 229 217 202 196 205 215 198 165 159 151 145 141 136 135 132 129 132 134 132 134 134 132 131 130 129
261 230 226 266 241 244 147 276 221 252 219 228 211 212 210 240 256 134 191 186 196 187 170 164 161 171 179 187 189 183 171 180 186 187 173 164 162 153 143 138 136 135 132 122 121 125 125 125 124 125 125 125 124 125